world map with MIR marked

MIR - Airport

This information may not be accurate or current and is not valid for navigation or flight planning. No warranty of fitness for any purpose is made or implied.

flag of Tunisia

Donate via PayPal

Additional information is available on the NEW Great Circle Mapper

Location
City:  Monastir, Tunisia
Name:Habib Bourguiba International Airport
ICAO / IATA:DTMB / MIR

Details
Type:Airport (Aerodrome, Airfield)
Use:Public/Civil
Latitude:35°45'29"N (35.758056)
Longitude:10°45'17"E (10.754722)
Elevation:9 ft (3 m)
Runways:1
Longest:9744 × 148 ft (2970 × 45 m)

Time
Timezone:UTC+1 (DST+2)

Weather
METAR:DTMB  290500Z VRB02KT 6000 NSC 24/22 Q1018 NOSIG
TAF:DTMB  282330Z 2900/2924 13004KT CAVOK BECMG 2906/2908 09005KT BECMG 2915/2917 09010KT

Related Locations
Nearby:
Farthest:CHT: 11759 mi / 18924 km
Waitangi [Tuuta], Chatham Islands, NZ

Find:

   beyond  
but within

Other Information
Maps:
Sources:

  


 


Great Circle Mapper   Great Circle Mapper
Great Circle Mapper FAQ   Great Circle Mapper FAQ
  Karl's Home Page
KLSē   KLSē Home
   GC on Facebook
Airlines of the World   Airlines of the World
Donate via PayPal


Copyright © 2004-2016, Karl L. Swartz. All rights reserved.
All trademarks mentioned herein belong to their respective owners.

Please see credits for attribution and copyright information.

Karl Swartz <karl@kls2.com>
  Powered by FreeBSD
Valid HTML 4.01!
Labeled with ICRA
hCard Microformat
Geo Microformat